This is the latest recevied weather packets stored in our database for station/object AK4NG. If no packets are shown the sender has not sent any weather packets the latest 10 day(s).
| Time | Temp. | Humidity | Pressure | Rain* | Wind** | Luminosity | Snow |
|---|---|---|---|---|---|---|---|
| 1777551944 | 17.78° C | 98% | 1012.3 hPa | 0 mm | - | 76 W/m² | - |
| 1777551642 | 17.22° C | 98% | 1012.3 hPa | 0 mm | - | 66 W/m² | - |
| 1777551340 | 17.22° C | 98% | 1012.3 hPa | 0 mm | - | 56 W/m² | - |
| 1777551036 | 17.22° C | 98% | 1012.1 hPa | 0 mm | - | 46 W/m² | - |
| 1777550733 | 17.22° C | 98% | 1012.5 hPa | 0 mm | - | 35 W/m² | - |
| 1777550429 | 17.22° C | 98% | 1012.5 hPa | 0 mm | - | 35 W/m² | - |
| 1777550126 | 17.22° C | 98% | 1012.5 hPa | 0 mm | - | 45 W/m² | - |
| 1777549822 | 17.22° C | 98% | 1012.3 hPa | 0 mm | - | 39 W/m² | - |
| 1777549518 | 17.22° C | 98% | 1012.6 hPa | 0 mm | - | 10 W/m² | - |
| 1777549214 | 17.22° C | 98% | 1012.4 hPa | 0 mm | - | 13 W/m² | - |
| 1777548911 | 17.22° C | 98% | 1012.6 hPa | 0 mm | - | 5 W/m² | - |
| 1777548608 | 17.22° C | 98% | 1012.6 hPa | 0 mm | - | 6 W/m² | - |
| 1777548305 | 17.22° C | 98% | 1012.7 hPa | 0 mm | - | 5 W/m² | - |
| 1777548002 | 17.22° C | 98% | 1012.4 hPa | 0 mm | - | 2 W/m² | - |
| 1777547697 | 17.22° C | 98% | 1012.5 hPa | 0 mm | - | 1 W/m² | - |
| 1777547394 | 17.22° C | 98% | 1012.5 hPa | 0 mm | - | 1 W/m² | - |
| 1777547092 | 17.22° C | 98% | 1012.7 hPa | 0 mm | - | 1 W/m² | - |
| 1777546789 | 17.22° C | 98% | 1012.4 hPa | 0 mm | - | 0 W/m² | - |
| 1777546486 | 17.22° C | 98% | 1012.7 hPa | 0 mm | - | 0 W/m² | - |
| 1777546183 | 17.22° C | 98% | 1012.5 hPa | 0 mm | - | 0 W/m² | - |
| 1777545879 | 17.22° C | 98% | 1012.4 hPa | 0 mm | - | 0 W/m² | - |
| 1777545576 | 17.22° C | 98% | 1012.4 hPa | 0 mm | - | 0 W/m² | - |
| 1777545272 | 17.22° C | 98% | 1012.5 hPa | 0 mm | - | 0 W/m² | - |
| 1777544970 | 17.22° C | 98% | 1012.1 hPa | 0 mm | - | 0 W/m² | - |
| 1777544666 | 17.22° C | 98% | 1012.2 hPa | 0 mm | - | 0 W/m² | - |
* Rain latest hour (hover to see other rain measurements)
** Current wind speed in m/s (hover to see current wind gust speed)